Погода в Байхоре

Россия / Забайкальский край     50°17′47″N   108°34′57″E
темп.,
°C
ветер,
м/с
пор.,
м/с
влажн.,
%
обл.,
%
осадки,
мм/ч
давл.,
гПа
погр.,
м
16 мая, вс
вс1600:00+3зсз116413 0.0 101912
03:00+2юз21655 0.0 102013
06:00+1юз21705 0.0 102014
09:00+8юз24485 0.0 1016362
12:00+16зюз592997 0.0 10111580
15:00+20з582318 0.0 10092963
18:00+17ссз773598 0.0 10091647
21:00+10сз22655 0.0 101148
17 мая, пн
пн1700:00+6юв018492 0.0 101310
03:00+4юв019023 0.0 101110
06:00+3ююз219262 0.0 100818
09:00+11юз39516 0.0 1003487
12:00+20з6103020 0.0 10002463
15:00+16ссз784784 0.0 10011354
18:00+10ссз5970100 0.1 10051182
21:00+8ссз2581100 0.7 1008658
18 мая, вт
вт1800:00+5ссз138399 0.1 1012187
03:00+2сз219511 0.1 101419
06:00+1зсз1190100 0.0 1016186
09:00+6зюз126539 0.0 1015889
12:00+12з143592 0.0 10111902
15:00+15зюз1531100 0.0 10072327
18:00+14сз244175 0.0 10061715
21:00+10ююз115773 0.0 100526
19 мая, ср
ср1900:00+5юз117673 0.0 100710
03:00+3ю118166 0.0 100411
06:00+3ю118387 0.0 100214
09:00+12ююз274893 0.0 997472
12:00+19з473481 0.0 9952251
15:00+17ссз4540100 0.0 9951752
18:00+15ссв125497 0.2 9971024
21:00+11в0174100 0.4 99915
20 мая, чт
чт2000:00+8ссз118247 0.0 100128
03:00+5с11895 0.0 100210
06:00+3всв119426 0.0 100110
09:00+10в1271100 0.0 998359
12:00+17ссз2352100 0.0 994829
15:00+20з363665 0.0 9921392
18:00+20с443958 0.0 9921186
21:00+12ссв3564100 0.0 994139